[[{"header":{"parameterUnit":"m.s-1","parameterCategory":1,"la1":30.2991,"la2":30.254,"lo1":-89.0895,"lo2":-89.0444,"dy":0.0017,"dx":0.0017,"nx":28,"ny":28,"refTime":"2025-08-02T09:00:00:Z","depth":0,"parameterNumber":2,"parameterNumberName":"U-component_of_WINDS"},"data":[0,0,0,0,0,0,0,0,0,0,0,0,0,0,0,0,0,0,0,0,0,0,0,0,0,0,0,0,0,0,0,0,0,0,0,0,0,0,0,0,0,0,0,0,0,0,0,0,0,0,0,0,0,0,0,0,0,0,-0.2811,-0.2811,0,-0.2836,-0.2836,-0.2837,-0.2812,-0.2811,-0.281,-0.2809,-0.2835,-0.2837,-0.2839,0,0,0,0,0,0,0,0,0,0,0,0,0,-0.2741,-0.2742,-0.2811,-0.2811,-0.2811,-0.2836,-0.2836,-0.2837,-0.2812,-0.2811,-0.2809,-0.2808,-0.2835,-0.2837,-0.2839,0,0,0,0,0,0,0,0,0,0,0,0,0,-0.2769,-0.2743,-0.2811,-0.2802,-0.2801,-0.2836,-0.2836,-0.2837,-0.2812,-0.281,-0.2809,-0.2808,-0.2834,-0.2837,-0.2839,-0.2884,0,0,-0.2847,-0.2848,0,0,0,0,0,0,0,0,-0.2768,-0.2772,-0.2803,-0.2802,-0.2802,-0.2819,-0.2821,-0.2853,-0.2812,-0.2808,-0.2809,-0.2807,-0.2831,-0.2834,-0.2842,-0.2885,-0.2886,-0.2847,-0.2848,-0.2849,-0.285,0,0,0,0,0,0,0,-0.2766,-0.2771,-0.2821,-0.2803,-0.2803,-0.2797,-0.2799,-0.2827,-0.2828,-0.2808,-0.2806,-0.281,-0.2831,-0.284,-0.2842,-0.2887,-0.2847,-0.2849,-0.285,-0.2851,-0.2968,-0.2969,0,0,0,0,0,0,-0.2765,-0.2769,-0.282,-0.2821,-0.2781,-0.2799,-0.2802,-0.2815,-0.2827,-0.2828,-0.2811,-0.2808,-0.2836,-0.284,-0.2843,-0.2897,-0.2849,-0.2852,-0.2853,-0.2966,-0.2968,-0.297,0,0,0,0,0,0,-0.2763,-0.2769,-0.2819,-0.2795,-0.2801,-0.2802,-0.2817,-0.2816,-0.2825,-0.2829,-0.2829,-0.282,-0.2835,-0.284,-0.2874,-0.2897,-0.2853,-0.2855,-0.2964,-0.2967,-0.2969,-0.3004,0,0,0,0,0,0,-0.2761,-0.2769,-0.2786,-0.2795,-0.2802,-0.2849,-0.2818,-0.2818,-0.2829,-0.2826,-0.2838,-0.2838,-0.2834,-0.287,-0.2876,-0.29,-0.2857,-0.2962,-0.2965,-0.2968,-0.3001,-0.3007,-0.3013,0,0,0,0,0,-0.2759,-0.2795,-0.2787,-0.2794,-0.2823,-0.2851,-0.2854,-0.2849,-0.2831,-0.2849,-0.2851,-0.2838,-0.2893,-0.2874,-0.2881,-0.2905,-0.2961,-0.2964,-0.2968,-0.2998,-0.3006,-0.3013,0,0,0,0,0,0,-0.279,-0.2796,-0.2788,-0.2828,-0.2839,-0.2846,-0.2868,-0.2858,-0.2874,-0.2871,-0.2863,-0.2866,-0.2902,-0.2907,-0.2885,-0.2949,-0.2924,-0.2929,-0.2945,-0.2952,-0.2958,-0.2957,-0.2859,0,0,0,0,0,-0.2801,-0.2822,-0.2827,-0.2862,-0.2868,-0.2867,-0.2879,-0.2873,-0.2885,-0.2889,-0.2894,-0.2906,-0.2926,-0.2939,-0.2958,-0.3001,-0.3003,-0.3021,-0.3027,-0.3032,-0.3037,-0.306,-0.3068,-0.2982,-0.2982,-0.2982,0,0,-0.2825,-0.2831,-0.2845,-0.2869,-0.2876,-0.2899,-0.2871,-0.2896,-0.2913,-0.2893,-0.2926,-0.293,-0.2942,-0.2981,-0.2998,-0.2986,-0.3061,-0.3036,-0.304,-0.3043,-0.3064,-0.3073,-0.308,-0.2984,-0.2984,-0.2983,0,0,-0.288,-0.2887,-0.2917,-0.2925,-0.2937,-0.2936,-0.2943,-0.2952,-0.2954,-0.2986,-0.2972,-0.2991,-0.3026,-0.3035,-0.3044,-0.3101,-0.309,-0.3108,-0.314,-0.3163,-0.3169,-0.3175,-0.3196,-0.3204,-0.3112,-0.3112,-0.3112,0,-0.2909,-0.2942,-0.2934,-0.296,-0.2971,-0.2953,-0.2983,-0.2991,-0.3009,-0.3017,-0.3002,-0.3045,-0.3052,-0.3093,-0.3107,-0.3114,-0.3123,-0.3107,-0.3169,-0.3175,-0.318,-0.32,-0.3208,-0.3114,-0.3114,-0.3114,-0.3114,0,-0.2976,-0.2999,-0.3022,-0.3039,-0.3052,-0.3081,-0.3077,-0.3091,-0.3084,-0.3084,-0.3117,-0.3125,-0.3144,-0.3153,-0.3147,-0.3193,-0.3185,-0.317,-0.3145,-0.3191,-0.321,-0.3217,-0.3117,-0.3117,-0.3116,-0.3116,0,0,-0.3053,-0.3065,-0.3073,-0.3081,-0.3092,-0.311,-0.3136,-0.3155,-0.3168,-0.318,-0.3203,-0.3232,-0.3217,-0.3228,-0.3222,-0.3242,-0.3287,-0.3224,-0.3224,-0.3236,-0.3339,-0.3351,-0.336,-0.3279,-0.328,-0.3281,-0.3338,0,-0.311,-0.3157,-0.315,-0.3195,-0.3216,-0.3199,-0.3222,-0.3232,-0.3232,-0.325,-0.3251,-0.3272,-0.3251,-0.3257,-0.3276,-0.3278,-0.3308,-0.3273,-0.3301,-0.3302,-0.33,-0.337,-0.3383,-0.3436,-0.3345,-0.3347,-0.3347,0,-0.3182,-0.3197,-0.3244,-0.3251,-0.326,-0.3281,-0.3298,-0.3315,-0.3325,-0.3324,-0.3335,-0.3325,-0.3352,-0.3326,-0.3363,-0.3339,-0.335,-0.3352,-0.3354,-0.3358,-0.3328,-0.3376,-0.3453,-0.3461,-0.3359,-0.3358,-0.3357,0,-0.3235,-0.3266,-0.3298,-0.3305,-0.3314,-0.3329,-0.3334,-0.3342,-0.3354,-0.3368,-0.3375,-0.3392,-0.3402,-0.3415,-0.3411,-0.3392,-0.3449,-0.3422,-0.3449,-0.345,-0.3463,-0.3463,-0.3544,-0.3468,-0.3468,-0.3468,-0.3468,0,-0.3299,-0.3329,-0.3322,-0.3342,-0.3374,-0.3366,-0.3398,-0.3401,-0.3408,-0.3428,-0.3414,-0.3433,-0.3425,-0.3443,-0.344,-0.3471,-0.3475,-0.3476,-0.3475,-0.3478,-0.3478,-0.3486,-0.3482,-0.347,-0.347,-0.3469,-0.3469,0,-0.3364,-0.336,-0.3394,-0.34,-0.3402,-0.3426,-0.343,-0.3449,-0.3448,-0.3474,-0.3479,-0.3477,-0.3499,-0.3495,-0.3518,-0.3515,-0.3555,-0.3549,-0.3552,-0.3551,-0.3579,-0.3576,-0.3669,-0.3681,-0.3596,-0.3597,-0.3597,0,-0.3406,-0.3428,-0.3436,-0.3448,-0.3454,-0.3474,-0.3485,-0.3477,-0.349,-0.3502,-0.3519,-0.3539,-0.3554,-0.3589,-0.359,-0.3607,-0.3602,-0.3633,-0.3605,-0.3607,-0.3604,-0.3603,-0.3605,-0.3639,-0.364,-0.3641,-0.3642,0,-0.3481,-0.3478,-0.3495,-0.3511,-0.3525,-0.3538,-0.3549,-0.356,-0.3552,-0.3567,-0.3588,-0.36,-0.3623,-0.3643,-0.3659,-0.3664,-0.3652,-0.365,-0.3658,-0.3662,-0.3663,-0.3664,-0.3568,-0.3649,-0.3648,-0.3647,-0.3647,-0.3647,-0.3536,-0.3556,-0.3564,-0.3583,-0.359,-0.3601,-0.3619,-0.3619,-0.3637,-0.3655,-0.3649,-0.3673,-0.3681,-0.3702,-0.3708,-0.3727,-0.3715,-0.3726,-0.3729,-0.3732,-0.3736,-0.3659,-0.373,-0.3729,-0.3729,-0.3729,-0.3729,0,-0.3612,-0.3616,-0.3633,-0.3649,-0.3664,-0.365,-0.3662,-0.3675,-0.3697,-0.3706,-0.3721,-0.3745,-0.3764,-0.3766,-0.3783,-0.3798,-0.3793,-0.3803,-0.3803,-0.3804,-0.3745,-0.3737,-0.3807,-0.3807,-0.3807,-0.3807,-0.3807,-0.3807,-0.3653,-0.3684,-0.3682,-0.3717,-0.3721,-0.3744,-0.3752,-0.3761,-0.3768,-0.3796,-0.3811,-0.3812,-0.3818,-0.3836,-0.3852,-0.3852,-0.386,-0.3872,-0.3871,-0.3816,-0.3808,-0.3801,-0.3793,-0.3874,-0.3874,-0.3928,-0.3929,-0.3929]},{"header":{"parameterUnit":"m.s-1","parameterCategory":1,"la1":30.2991,"la2":30.254,"lo1":-89.0895,"lo2":-89.0444,"dy":0.0017,"dx":0.0017,"nx":28,"ny":28,"refTime":"2025-08-02T09:00:00:Z","depth":0,"parameterNumber":3,"parameterNumberName":"V-component_of_WINDS"},"data":[0,0,0,0,0,0,0,0,0,0,0,0,0,0,0,0,0,0,0,0,0,0,0,0,0,0,0,0,0,0,0,0,0,0,0,0,0,0,0,0,0,0,0,0,0,0,0,0,0,0,0,0,0,0,0,0,0,0,-4.64,-4.6401,0,-4.6496,-4.6497,-4.6498,-4.6423,-4.642,-4.6417,-4.6414,-4.6505,-4.651,-4.6515,0,0,0,0,0,0,0,0,0,0,0,0,0,-4.6147,-4.6153,-4.64,-4.6402,-4.6403,-4.6496,-4.6497,-4.6498,-4.6424,-4.642,-4.6416,-4.6413,-4.6503,-4.6509,-4.6516,0,0,0,0,0,0,0,0,0,0,0,0,0,-4.6251,-4.6154,-4.64,-4.6377,-4.6376,-4.6495,-4.6497,-4.6498,-4.6425,-4.642,-4.6415,-4.6411,-4.6501,-4.6509,-4.6517,-4.6662,0,0,-4.6541,-4.6545,0,0,0,0,0,0,0,0,-4.6246,-4.6261,-4.6379,-4.6379,-4.6378,-4.6443,-4.6441,-4.6553,-4.6426,-4.6406,-4.6414,-4.6408,-4.6488,-4.6496,-4.6525,-4.6666,-4.667,-4.6542,-4.6547,-4.655,-4.6553,0,0,0,0,0,0,0,-4.6238,-4.6256,-4.6438,-4.6381,-4.638,-4.636,-4.6369,-4.6462,-4.6472,-4.6407,-4.6402,-4.6415,-4.6486,-4.6517,-4.6526,-4.6671,-4.6542,-4.6549,-4.6554,-4.6557,-4.6936,-4.6941,0,0,0,0,0,0,-4.6234,-4.6251,-4.6435,-4.6441,-4.6299,-4.6368,-4.6379,-4.6427,-4.6471,-4.6473,-4.6419,-4.6411,-4.6506,-4.6517,-4.6529,-4.6702,-4.655,-4.6558,-4.6563,-4.6931,-4.6937,-4.6943,0,0,0,0,0,0,-4.6229,-4.6252,-4.6431,-4.6344,-4.6366,-4.6378,-4.6432,-4.6431,-4.6462,-4.648,-4.648,-4.6449,-4.6502,-4.6518,-4.663,-4.6704,-4.6562,-4.6569,-4.6925,-4.6933,-4.694,-4.7049,0,0,0,0,0,0,-4.6222,-4.625,-4.6307,-4.6346,-4.6371,-4.6532,-4.6437,-4.6436,-4.6477,-4.6467,-4.6508,-4.651,-4.65,-4.6618,-4.6638,-4.6712,-4.6575,-4.6918,-4.6928,-4.6937,-4.7038,-4.7059,-4.7077,0,0,0,0,0,-4.6214,-4.6332,-4.631,-4.6333,-4.6442,-4.6537,-4.655,-4.6538,-4.6483,-4.6539,-4.6551,-4.6509,-4.6693,-4.663,-4.6652,-4.673,-4.6913,-4.6925,-4.6937,-4.703,-4.7055,-4.7077,0,0,0,0,0,0,-4.6299,-4.6337,-4.6313,-4.6448,-4.649,-4.6524,-4.6595,-4.6565,-4.6622,-4.661,-4.659,-4.66,-4.6718,-4.6735,-4.6665,-4.6872,-4.6794,-4.681,-4.6857,-4.6881,-4.69,-4.6894,-4.6582,0,0,0,0,0,-4.6334,-4.641,-4.6438,-4.6554,-4.6577,-4.6583,-4.6623,-4.661,-4.6652,-4.6668,-4.6688,-4.6728,-4.6795,-4.6839,-4.6901,-4.7041,-4.7048,-4.7105,-4.7124,-4.714,-4.7154,-4.7229,-4.7254,-4.6981,-4.6981,-4.6981,0,0,-4.6406,-4.6436,-4.6485,-4.6572,-4.6603,-4.668,-4.6598,-4.6683,-4.6739,-4.668,-4.6788,-4.6804,-4.6847,-4.6974,-4.703,-4.6991,-4.7231,-4.7155,-4.7167,-4.7173,-4.7243,-4.7269,-4.7292,-4.6989,-4.6988,-4.6987,0,0,-4.6577,-4.6608,-4.6709,-4.6742,-4.6791,-4.6794,-4.6818,-4.6857,-4.6866,-4.6974,-4.6932,-4.6998,-4.7113,-4.7146,-4.7177,-4.7362,-4.7325,-4.7382,-4.7483,-4.7556,-4.7577,-4.7596,-4.7662,-4.7686,-4.7397,-4.7397,-4.7397,0,-4.6659,-4.6776,-4.6763,-4.6853,-4.6892,-4.6845,-4.6946,-4.6978,-4.7043,-4.7071,-4.7027,-4.7171,-4.7197,-4.733,-4.7376,-4.7403,-4.7429,-4.7378,-4.7576,-4.7595,-4.7612,-4.7674,-4.7699,-4.7404,-4.7403,-4.7402,-4.7402,0,-4.6876,-4.6957,-4.7032,-4.71,-4.7148,-4.7242,-4.7242,-4.7291,-4.7274,-4.7281,-4.7391,-4.7421,-4.7489,-4.7519,-4.7502,-4.765,-4.7625,-4.7579,-4.7499,-4.7645,-4.7703,-4.7727,-4.7413,-4.7411,-4.7409,-4.7407,0,0,-4.7102,-4.7163,-4.7191,-4.7221,-4.7272,-4.7333,-4.7425,-4.7493,-4.7536,-4.7583,-4.7658,-4.7757,-4.7716,-4.7752,-4.7738,-4.7802,-4.7946,-4.7748,-4.7749,-4.7784,-4.8111,-4.8145,-4.8173,-4.7922,-4.7927,-4.793,-4.8107,0,-4.7275,-4.7438,-4.7429,-4.7581,-4.7655,-4.7612,-4.7691,-4.773,-4.7739,-4.7802,-4.7811,-4.7882,-4.7821,-4.7843,-4.7905,-4.7916,-4.8011,-4.7903,-4.7991,-4.7994,-4.7982,-4.8203,-4.824,-4.8405,-4.813,-4.8133,-4.8136,0,-4.7499,-4.7557,-4.7717,-4.7757,-4.7788,-4.786,-4.7922,-4.7984,-4.8026,-4.8028,-4.8069,-4.8045,-4.8136,-4.8055,-4.8178,-4.8105,-4.814,-4.8151,-4.8157,-4.8164,-4.8074,-4.8216,-4.8457,-4.8482,-4.8172,-4.8169,-4.8166,0,-4.7649,-4.7766,-4.7877,-4.7904,-4.7953,-4.8005,-4.8028,-4.8066,-4.8108,-4.8161,-4.8188,-4.8251,-4.8285,-4.8333,-4.8326,-4.8267,-4.8452,-4.837,-4.8454,-4.8455,-4.8495,-4.8492,-4.8745,-4.8518,-4.8518,-4.8517,-4.8517,0,-4.7843,-4.7942,-4.7944,-4.8013,-4.8122,-4.811,-4.8218,-4.8235,-4.8269,-4.8338,-4.8303,-4.8369,-4.8355,-4.842,-4.8414,-4.8517,-4.8533,-4.8536,-4.8533,-4.8539,-4.8539,-4.8562,-4.855,-4.8524,-4.8522,-4.8521,-4.852,0,-4.8028,-4.8034,-4.8152,-4.819,-4.8202,-4.8281,-4.8312,-4.8376,-4.8382,-4.847,-4.849,-4.85,-4.8574,-4.8572,-4.8655,-4.8651,-4.8778,-4.8762,-4.8765,-4.8761,-4.8846,-4.8838,-4.9122,-4.9158,-4.8908,-4.8911,-4.8913,0,-4.8151,-4.8227,-4.8275,-4.832,-4.8347,-4.842,-4.8463,-4.8454,-4.85,-4.8555,-4.8611,-4.8683,-4.8739,-4.8859,-4.8872,-4.8936,-4.8921,-4.9016,-4.893,-4.8933,-4.8922,-4.8918,-4.8925,-4.9032,-4.9035,-4.9037,-4.9039,0,-4.837,-4.837,-4.8435,-4.8502,-4.8556,-4.8607,-4.8654,-4.8692,-4.8688,-4.8741,-4.8818,-4.8862,-4.8949,-4.902,-4.9081,-4.9101,-4.907,-4.9067,-4.9089,-4.9096,-4.9095,-4.9097,-4.8811,-4.906,-4.9058,-4.9056,-4.9055,-4.9054,-4.8528,-4.8594,-4.8638,-4.8712,-4.8747,-4.8792,-4.8854,-4.887,-4.8934,-4.9006,-4.8996,-4.9081,-4.9121,-4.92,-4.9227,-4.9292,-4.9258,-4.9291,-4.93,-4.9308,-4.9318,-4.9085,-4.9303,-4.9302,-4.9302,-4.9301,-4.9301,0,-4.8745,-4.8772,-4.884,-4.8909,-4.8967,-4.8935,-4.8985,-4.9035,-4.9112,-4.9153,-4.921,-4.9298,-4.9367,-4.9386,-4.9452,-4.9501,-4.9488,-4.9518,-4.9514,-4.952,-4.9344,-4.9318,-4.9528,-4.9528,-4.9528,-4.9527,-4.9527,-4.9527,-4.8865,-4.8974,-4.8979,-4.9105,-4.913,-4.9216,-4.9248,-4.9289,-4.9322,-4.9423,-4.9481,-4.9494,-4.9526,-4.9594,-4.9655,-4.9659,-4.9684,-4.9721,-4.9719,-4.9554,-4.9532,-4.951,-4.9485,-4.9727,-4.9727,-4.9888,-4.989,-4.9891]}]]